Change the Weather History Date:

Saturday, January 12, 2013

  Actual Average Record
Temperature  
Mean Temperature 20 °F -  
Max Temperature 37 °F 15 °F 42 °F (1987)
Min Temperature 3 °F -4 °F -34 °F (1965)
Degree Days  
Heating Degree Days 45    
Moisture  
Dew Point 10 °F    
Average Humidity 75    
Maximum Humidity 93    
Minimum Humidity 62    
Precipitation  
Precipitation 0.04 in - - ()
Sea Level Pressure  
Sea Level Pressure 29.64 in    
Wind  
Wind Speed 8 mph (WNW)    
Max Wind Speed 17 mph    
Max Gust Speed 28 mph    
Visibility 6 miles    
Events Rain , Snow    
Averages and records for this station are not official NWS values.
T = Trace of Precipitation, MM = Missing Value Source: NWS Daily Summary

Daily Weather History Graph

Daily Weather History Graph

Search for Another Location

Airport or City:

Trip Planner

Search our weather history database for the weather conditions in past years. The results will help you decide how hot, cold, wet, or windy it might be!

Date:

Astronomy

Jan. 12, 2013 Rise Set
Actual Time 7:55 AM CST 4:44 PM CST
Civil Twilight 7:20 AM CST 5:19 PM CST
Nautical Twilight 6:42 AM CST 5:57 PM CST
Astronomical Twilight 6:05 AM CST 6:34 PM CST
Moon 8:07 AM CST (1/12) 6:22 PM CST (1/12)
Length of Visible Light 9h 58m
Length of Day
8h 48m
New Moon, 1% of the Moon is Illuminated
Jan 12
New Moon
Jan 18
First Quarter
Jan 26
Full
Feb 3
Last Quarter
Feb 10
New

Hourly Weather History & Observations

Time (CST) Temp. Windchill Dew Point Humidity Pressure Visibility Wind Dir Wind Speed Gust Speed Precip Events Conditions
12:53 AM 36.0 °F - 34.0 °F 93% 29.31 in 5.0 mi Calm Calm - 0.02 in Rain Light Rain
1:10 AM 35.6 °F - 33.8 °F 93% 29.26 in 2.0 mi Calm Calm - 0.00 in   Overcast
1:17 AM 35.6 °F - 33.8 °F 93% 29.25 in 1.5 mi Calm Calm - 0.00 in   Overcast
1:30 AM 35.6 °F - 33.8 °F 93% 29.25 in 3.0 mi Calm Calm - 0.00 in   Overcast
1:53 AM 37.0 °F 34.5 °F 34.0 °F 89% 29.29 in 6.0 mi SSW 3.5 mph - 0.00 in   Overcast
2:53 AM 36.0 °F 30.3 °F 34.0 °F 93% 29.30 in 6.0 mi SW 6.9 mph - N/A   Overcast
3:41 AM 35.6 °F - 33.8 °F 93% 29.26 in 7.0 mi Calm Calm - 0.01 in Rain Light Rain
3:53 AM 35.1 °F 31.0 °F 33.1 °F 92% 29.31 in 5.0 mi SW 4.6 mph - 0.01 in Rain Light Rain
4:35 AM 33.8 °F 28.6 °F 30.2 °F 87% 29.28 in 7.0 mi WSW 5.8 mph - 0.01 in Snow Light Snow
4:53 AM 30.9 °F 19.8 °F 27.0 °F 85% 29.34 in 3.0 mi WNW 16.1 mph - 0.01 in Snow Light Snow
5:01 AM 28.4 °F 17.5 °F 24.8 °F 86% 29.30 in 5.0 mi WNW 13.8 mph 23.0 mph 0.00 in Snow Light Snow
5:08 AM 28.4 °F 18.5 °F 23.0 °F 80% 29.31 in 4.0 mi WNW 11.5 mph 20.7 mph 0.00 in Snow Light Snow
5:38 AM 24.8 °F 12.9 °F 19.4 °F 80% 29.35 in 2.5 mi West 13.8 mph 20.7 mph 0.00 in Snow Light Snow
5:53 AM 24.1 °F 11.5 °F 19.0 °F 81% 29.42 in 4.0 mi WNW 15.0 mph 21.9 mph 0.00 in Snow Light Snow
6:17 AM 21.2 °F 7.8 °F 15.8 °F 80% 29.39 in 1.8 mi WNW 15.0 mph - 0.00 in Snow Light Snow
6:31 AM 19.4 °F 5.0 °F 14.0 °F 80% 29.41 in 2.5 mi WNW 16.1 mph 21.9 mph 0.00 in Snow Light Snow
6:38 AM 19.4 °F 4.5 °F 12.2 °F 74% 29.42 in 5.0 mi WNW 17.3 mph 27.6 mph 0.00 in Snow Light Snow
6:46 AM 19.4 °F 5.0 °F 12.2 °F 74% 29.43 in 4.0 mi WNW 16.1 mph 25.3 mph 0.00 in Snow Light Snow
6:53 AM 19.0 °F 5.0 °F 12.0 °F 74% 29.50 in 7.0 mi WNW 15.0 mph - 0.00 in Snow Light Snow
7:27 AM 17.6 °F 3.7 °F 10.4 °F 73% 29.48 in 4.0 mi WNW 13.8 mph - 0.00 in Snow Light Snow
7:36 AM 17.6 °F 5.7 °F 10.4 °F 73% 29.49 in 1.8 mi WNW 10.4 mph 19.6 mph 0.00 in Snow Light Snow
7:53 AM 17.1 °F 4.3 °F 10.9 °F 77% 29.57 in 2.5 mi West 11.5 mph 17.3 mph 0.00 in Snow Light Snow
8:08 AM 15.8 °F 1.4 °F 8.6 °F 73% 29.53 in 1.5 mi WNW 13.8 mph 23.0 mph 0.00 in Snow Light Snow
8:14 AM 15.8 °F 0.9 °F 8.6 °F 73% 29.54 in 3.0 mi WNW 15.0 mph 20.7 mph 0.00 in Snow Light Snow
8:35 AM 15.8 °F 0.3 °F 8.6 °F 73% 29.55 in 2.0 mi West 16.1 mph 21.9 mph 0.00 in Snow Light Snow
8:53 AM 15.1 °F 1.1 °F 6.1 °F 68% 29.63 in 9.0 mi WNW 12.7 mph - 0.00 in   Overcast
9:24 AM 14.0 °F 0.5 °F 6.8 °F 73% 29.59 in 8.0 mi West 11.5 mph - 0.00 in   Overcast
9:31 AM 14.0 °F -0.2 °F 6.8 °F 73% 29.60 in 2.5 mi WNW 12.7 mph - 0.00 in Snow Light Snow
9:39 AM 14.0 °F -1.4 °F 6.8 °F 73% 29.60 in 1.2 mi WNW 15.0 mph 20.7 mph 0.00 in Snow Light Snow
9:51 AM 12.2 °F -0.2 °F 5.0 °F 73% 29.62 in 4.0 mi WNW 9.2 mph - 0.00 in Snow Light Snow
9:53 AM 14.0 °F 0.5 °F 5.0 °F 67% 29.68 in 6.0 mi WNW 11.5 mph - 0.00 in Snow Light Snow
10:53 AM 12.0 °F -1.3 °F 3.0 °F 67% 29.72 in 10.0 mi West 10.4 mph 21.9 mph 0.00 in   Mostly Cloudy
11:53 AM 12.9 °F -2.2 °F 1.9 °F 62% 29.75 in 6.0 mi WNW 13.8 mph 18.4 mph 0.00 in Snow Light Snow
12:53 PM 12.9 °F -2.2 °F 1.9 °F 62% 29.79 in 7.0 mi West 13.8 mph - 0.00 in   Overcast
1:11 PM 12.2 °F -1.8 °F 1.4 °F 62% 29.73 in 10.0 mi WNW 11.5 mph 16.1 mph N/A   Overcast
1:53 PM 12.0 °F 0.5 °F 1.9 °F 64% 29.83 in 6.0 mi WNW 8.1 mph - 0.00 in Snow Light Snow
2:53 PM 12.0 °F -0.4 °F 1.9 °F 64% 29.87 in 6.0 mi West 9.2 mph - 0.00 in   Haze
3:17 PM 12.2 °F -0.2 °F 3.2 °F 67% 29.81 in 1.8 mi West 9.2 mph - 0.00 in Snow Light Snow
3:23 PM 12.2 °F 0.7 °F 1.4 °F 62% 29.81 in 3.0 mi WNW 8.1 mph - 0.00 in Snow Light Snow
3:53 PM 10.9 °F -2.6 °F 1.9 °F 67% 29.91 in 9.0 mi WNW 10.4 mph - 0.00 in   Overcast
4:09 PM 10.4 °F -1.5 °F 3.2 °F 73% 29.83 in 1.8 mi West 8.1 mph - 0.00 in Snow Light Snow
4:20 PM 10.4 °F -2.4 °F 3.2 °F 73% 29.84 in 1.5 mi WNW 9.2 mph - 0.00 in Snow Light Snow
4:32 PM 10.4 °F -2.4 °F 1.4 °F 67% 29.84 in 3.0 mi WNW 9.2 mph - 0.00 in Snow Light Snow
4:53 PM 9.0 °F -2.2 °F -0.0 °F 67% 29.94 in 10.0 mi WNW 6.9 mph - 0.00 in   Scattered Clouds
5:53 PM 8.1 °F -7.0 °F -0.9 °F 67% 29.96 in 10.0 mi NW 11.5 mph - N/A   Partly Cloudy
6:53 PM 7.0 °F -11.0 °F -2.0 °F 67% 30.00 in 10.0 mi NW 16.1 mph - N/A   Partly Cloudy
7:11 PM 6.8 °F -8.6 °F -2.2 °F 67% 29.91 in 10.0 mi NW 11.5 mph - N/A   Mostly Cloudy
7:25 PM 6.8 °F -7.8 °F -2.2 °F 67% 29.91 in 10.0 mi NW 10.4 mph - N/A   Mostly Cloudy
7:53 PM 6.1 °F -12.8 °F -2.9 °F 67% 29.99 in 10.0 mi NW 17.3 mph - N/A   Scattered Clouds
8:53 PM 3.9 °F -8.2 °F -2.9 °F 73% 30.03 in 10.0 mi WNW 6.9 mph - N/A   Partly Cloudy
9:53 PM 3.0 °F -8.0 °F -4.0 °F 73% 30.06 in 10.0 mi WNW 5.8 mph - N/A   Clear
10:53 PM 3.9 °F -13.7 °F -2.9 °F 73% 30.09 in 10.0 mi NW 13.8 mph - N/A   Clear
11:15 PM 3.2 °F -12.2 °F -2.2 °F 78% 29.99 in 7.0 mi NW 10.4 mph - N/A   Scattered Clouds
11:25 PM 3.2 °F -11.3 °F -2.2 °F 78% 29.99 in 6.0 mi NW 9.2 mph - N/A   Haze
11:53 PM 5.0 °F -12.3 °F -2.0 °F 73% 30.07 in 10.0 mi NNW 13.8 mph - N/A   Overcast